Location: Newark
(44.9861°N, 0.2536°E)
Time: 17:27:13
(UTC+00:00)

KKS-1 - Visible Passes

Search period start: 03 July 2020 00:00
Search period end: 13 July 2020 00:00
Orbit: 636 x 651 km, 98.3° (Epoch: 02 July)

Date Brightness Start Highest point End Pass type
(mag) Time Alt. Az. Time Alt. Az. Time Alt. Az.
03 Jul ? 21:12:08 10° N 21:15:58 30° WNW 21:19:49 10° SW visible
04 Jul ? 21:37:12 10° NNW 21:40:13 18° WNW 21:43:14 10° WSW visible
05 Jul ? 20:24:06 10° NNE 20:28:34 88° WNW 20:33:00 10° SSW visible
05 Jul ? 22:03:09 10° NW 22:04:23 11° WNW 22:05:37 10° WNW visible
06 Jul ? 20:48:40 10° N 20:52:58 50° WNW 20:57:15 10° SW visible
07 Jul ? 21:13:27 10° N 21:17:18 29° WNW 21:21:07 10° SW visible
08 Jul ? 21:38:33 10° NNW 21:41:33 18° WNW 21:44:32 10° WSW visible
09 Jul ? 20:25:25 10° NNE 20:29:53 87° WNW 20:34:20 10° SSW visible
09 Jul ? 22:04:33 10° NW 22:05:42 11° WNW 22:06:52 10° WNW visible
10 Jul ? 20:50:00 10° N 20:54:18 49° WNW 20:58:35 10° SW visible
11 Jul ? 21:14:47 10° N 21:18:37 29° WNW 21:22:27 10° SW visible
12 Jul ? 21:39:53 10° NNW 21:42:51 18° WNW 21:45:50 10° WSW visible
